�N����,����,�~����,�C��,���x,�C��,����,���ϕ���,�ő�u�ԕ���,�ő厞����,���˗�,�I�_���x,�n�����x,�ő啗���N��,DTYPE
"23/09/18","00:10",0.0,24.7,84.9,1008.1,333.4,0.8,2.0,347.3,0.00,22.0,25.6,"00:06:32",1
"23/09/18","00:20",0.0,24.6,85.0,1007.8,336.6,0.7,1.6,334.5,0.00,22.0,25.7,"00:12:00",1
"23/09/18","00:30",0.0,24.4,85.4,1007.8,322.8,0.7,1.2,321.8,0.00,21.8,25.7,"00:24:40",1
"23/09/18","00:40",0.0,24.4,85.7,1007.8,307.9,0.8,1.6,315.1,0.00,21.9,25.7,"00:35:52",1
"23/09/18","00:50",0.0,24.2,85.9,1007.8,320.3,0.7,1.2,346.1,0.00,21.7,25.6,"00:41:44",1
"23/09/18","01:00",0.0,24.2,86.3,1008.3,299.9,1.0,2.0,318.3,0.00,21.8,25.7,"00:59:12",1
"23/09/18","01:10",0.0,24.4,86.4,1007.8,330.9,1.0,2.0,334.2,0.00,22.0,25.6,"01:04:08",1
"23/09/18","01:20",0.0,24.4,86.5,1008.3,290.8,0.6,1.7,331.9,0.00,22.0,25.7,"01:10:16",1
"23/09/18","01:30",0.0,24.4,86.4,1007.8,333.0,1.0,1.9,333.5,0.00,22.0,25.5,"01:25:20",1
"23/09/18","01:40",0.0,24.4,86.4,1007.8,308.1,0.8,1.3,340.5,0.00,22.0,25.3,"01:36:32",1
"23/09/18","01:50",0.0,24.4,86.3,1008.3,299.8,0.7,1.2,318.8,0.00,22.0,25.4,"01:45:36",1
"23/09/18","02:00",0.0,24.3,86.3,1007.6,313.5,0.7,1.2,344.8,0.00,21.9,25.6,"01:50:02",1
"23/09/18","02:10",0.0,24.2,86.6,1008.3,329.2,1.0,1.8,324.7,0.00,21.9,25.5,"02:04:24",1
"23/09/18","02:20",0.0,24.2,86.8,1007.6,303.0,0.7,1.7,325.4,0.00,21.9,25.4,"02:16:08",1
"23/09/18","02:30",0.0,24.0,86.9,1008.1,305.8,0.5,1.3,261.8,0.00,21.7,25.2,"02:20:02",1
"23/09/18","02:40",0.0,24.0,87.2,1007.8,294.9,0.7,1.7,320.8,0.00,21.8,25.4,"02:37:44",1
"23/09/18","02:50",0.0,24.0,87.4,1008.1,305.5,0.8,1.6,345.7,0.00,21.8,25.3,"02:49:52",1
"23/09/18","03:00",0.0,24.0,87.5,1008.3,305.5,1.0,1.4,320.2,0.00,21.8,25.2,"02:52:16",1
"23/09/18","03:10",0.0,24.1,87.6,1008.1,329.6,1.2,2.2,310.8,0.00,22.0,25.4,"03:04:08",1
"23/09/18","03:20",0.0,24.2,87.7,1008.1,310.0,1.1,2.6,343.1,0.00,22.1,25.4,"03:12:40",1
"23/09/18","03:30",0.0,24.4,87.6,1008.3,308.1,1.1,1.7,304.5,0.00,22.2,25.5,"03:25:36",1
"23/09/18","03:40",0.0,24.5,87.4,1008.3,327.7,0.7,1.6,340.6,0.00,22.3,25.4,"03:38:48",1
"23/09/18","03:50",0.0,24.6,87.3,1008.1,328.0,1.0,1.9,325.8,0.00,22.4,25.4,"03:41:52",1
"23/09/18","04:00",0.0,24.7,87.2,1008.3,335.2,0.6,1.1,352.9,0.00,22.5,25.2,"03:52:56",1
"23/09/18","04:10",0.0,24.6,87.3,1008.3,276.8,0.6,1.0,226.1,0.00,22.4,25.3,"04:00:40",1
"23/09/18","04:20",0.0,24.6,87.7,1008.3,335.8,1.0,1.7,344.3,0.00,22.5,25.2,"04:18:32",1
"23/09/18","04:30",0.0,24.5,88.0,1008.3,290.2,0.7,1.2,343.2,0.00,22.4,25.2,"04:20:56",1
"23/09/18","04:40",0.0,24.6,88.1,1008.3,294.9,0.5,1.0,314.3,0.00,22.5,25.2,"04:31:04",1
"23/09/18","04:50",0.0,24.7,88.2,1008.3,322.0,0.7,1.4,326.9,0.00,22.7,25.0,"04:48:24",1
"23/09/18","05:00",0.0,24.6,88.4,1008.6,314.4,0.7,1.3,332.6,0.00,22.6,25.2,"04:53:12",1
"23/09/18","05:10",0.0,24.5,88.7,1008.8,307.8,1.0,1.9,335.7,0.00,22.6,25.1,"05:08:24",1
"23/09/18","05:20",2.0,24.7,88.9,1008.6,334.9,1.8,3.4,350.0,0.00,22.8,25.2,"05:11:36",1
"23/09/18","05:30",0.2,24.5,89.2,1008.8,270.2,0.5,1.3,328.6,0.00,22.6,25.2,"05:20:32",1
"23/09/18","05:40",0.2,24.3,89.5,1008.6,305.4,0.5,1.0,330.9,0.00,22.5,25.1,"05:32:40",1
"23/09/18","05:50",0.2,24.4,90.0,1008.6,314.6,0.8,1.8,312.4,0.00,22.7,25.1,"05:48:40",1
"23/09/18","06:00",0.0,24.3,90.5,1008.6,340.4,0.6,1.6,317.3,0.00,22.7,24.9,"05:51:20",1
"23/09/18","06:10",0.0,24.2,90.7,1009.0,181.2,0.2,0.6,223.2,0.00,22.6,25.2,"06:00:08",1
"23/09/18","06:20",0.0,24.3,91.0,1009.0,305.0,0.7,1.4,340.7,0.00,22.8,25.1,"06:15:36",1
"23/09/18","06:30",0.0,24.3,91.3,1009.0,321.1,0.3,1.0,305.7,0.00,22.8,25.0,"06:21:12",1
"23/09/18","06:40",0.0,24.4,91.6,1009.0,302.7,0.5,0.8,96.3,0.00,23.0,25.0,"06:39:36",1
"23/09/18","06:50",0.0,24.6,91.8,1009.3,312.1,0.5,1.3,349.5,0.01,23.2,25.0,"06:48:00",1
"23/09/18","07:00",0.0,24.7,92.0,1009.5,334.1,0.8,1.3,347.7,0.02,23.4,25.2,"06:57:04",1
"23/09/18","07:10",0.0,24.8,92.2,1009.5,336.6,0.6,1.1,344.2,0.03,23.5,24.9,"07:03:28",1
"23/09/18","07:20",0.0,24.9,92.5,1009.5,359.1,0.5,0.9,310.6,0.05,23.6,25.1,"07:19:28",1
"23/09/18","07:30",0.0,25.2,92.7,1009.3,320.5,0.6,1.1,342.9,0.07,24.0,25.1,"07:25:12",1
"23/09/18","07:40",0.0,25.3,92.6,1009.3,314.1,0.5,1.0,336.6,0.08,24.1,25.3,"07:33:44",1
"23/09/18","07:50",0.0,25.4,92.8,1009.5,256.1,0.2,0.6,301.0,0.09,24.2,25.0,"07:40:08",1
"23/09/18","08:00",0.0,25.7,92.8,1009.3,204.7,0.2,0.5,148.3,0.08,24.5,25.2,"07:52:32",1
"23/09/18","08:10",0.0,26.3,93.0,1009.3,150.8,0.2,0.9,330.2,0.18,25.1,25.2,"08:09:52",1
"23/09/18","08:20",0.0,26.8,92.3,1009.0,243.5,0.3,1.1,129.4,0.30,25.5,25.3,"08:16:40",1
"23/09/18","08:30",0.0,27.5,92.3,1009.0,215.6,0.5,1.4,235.8,0.36,26.2,25.2,"08:27:44",1
"23/09/18","08:40",0.0,27.6,89.6,1008.6,176.5,0.5,1.4,21.7,0.26,25.8,25.3,"08:31:28",1
"23/09/18","08:50",0.0,27.3,90.1,1009.3,212.9,0.7,1.7,235.7,0.14,25.6,25.3,"08:41:04",1
"23/09/18","09:00",0.0,28.3,88.8,1009.7,122.8,0.5,2.1,103.5,0.27,26.3,25.3,"08:50:02",1
"23/09/18","09:10",0.0,28.7,85.2,1010.0,148.5,0.8,1.8,125.2,0.31,26.0,25.2,"09:00:16",1
"23/09/18","09:20",0.0,29.7,81.6,1010.7,165.8,1.0,2.1,121.6,0.30,26.3,25.4,"09:13:52",1
"23/09/18","09:30",0.0,29.6,77.9,1010.7,55.6,0.6,1.4,25.4,0.11,25.4,25.2,"09:23:44",1
"23/09/18","09:40",0.0,30.0,77.1,1010.4,108.3,0.8,2.1,129.2,0.29,25.6,25.3,"09:39:36",1
"23/09/18","09:50",0.0,30.3,75.3,1010.7,149.4,0.8,2.5,230.8,0.36,25.5,25.3,"09:47:04",1
"23/09/18","10:00",0.0,30.6,73.1,1010.7,160.0,1.6,4.2,233.5,0.39,25.3,25.5,"09:58:40",1
"23/09/18","10:10",0.0,30.0,74.3,1010.9,174.3,1.3,3.4,226.8,0.19,25.0,25.6,"10:00:08",1
"23/09/18","10:20",0.0,30.1,75.2,1010.9,177.5,1.7,2.9,213.3,0.29,25.3,25.6,"10:11:36",1
"23/09/18","10:30",0.0,30.4,74.0,1010.7,158.4,1.2,3.3,228.5,0.33,25.3,25.7,"10:27:28",1
"23/09/18","10:40",0.0,31.3,72.4,1010.9,132.8,1.1,2.4,129.9,0.43,25.8,25.9,"10:35:28",1
"23/09/18","10:50",0.0,32.0,70.4,1010.9,124.9,1.0,2.2,177.9,0.47,26.0,25.8,"10:42:16",1
"23/09/18","11:00",0.0,32.0,69.4,1011.4,150.1,1.3,2.6,143.4,0.41,25.7,25.7,"10:58:24",1
"23/09/18","11:10",0.0,31.9,67.6,1011.2,162.3,1.3,3.5,226.7,0.41,25.2,26.1,"11:01:28",1
"23/09/18","11:20",0.0,31.2,69.2,1010.9,161.9,1.3,3.9,204.1,0.23,24.9,26.1,"11:10:48",1
"23/09/18","11:30",0.0,30.2,71.1,1010.4,180.5,1.2,2.9,210.9,0.08,24.4,26.2,"11:29:52",1
"23/09/18","11:40",0.0,30.0,72.7,1009.3,189.9,1.5,3.4,223.8,0.11,24.6,26.1,"11:32:40",1
"23/09/18","11:50",0.0,30.9,72.4,1009.0,198.3,1.6,3.5,212.9,0.43,25.4,26.2,"11:48:40",1
"23/09/18","12:00",0.0,32.0,69.3,1009.5,180.2,1.6,3.3,207.4,0.52,25.7,26.3,"11:51:20",1
"23/09/18","12:10",0.0,31.9,66.3,1010.0,170.4,0.8,3.4,191.7,0.31,24.9,26.4,"12:02:40",1
"23/09/18","12:20",0.0,31.7,67.7,1009.5,183.6,1.3,2.4,203.1,0.25,25.0,26.4,"12:11:28",1
"23/09/18","12:30",0.0,32.0,67.0,1009.7,183.0,1.5,4.3,212.2,0.37,25.1,26.2,"12:27:28",1
"23/09/18","12:40",0.0,32.6,63.4,1009.7,159.7,1.2,3.7,132.7,0.40,24.8,26.5,"12:31:36",1
"23/09/18","12:50",0.0,32.8,64.7,1009.5,194.3,1.6,3.2,219.5,0.35,25.3,26.5,"12:46:08",1
"23/09/18","13:00",0.0,33.3,63.1,1009.7,178.6,1.8,4.5,186.3,0.50,25.4,26.5,"12:52:16",1
"23/09/18","13:10",0.0,33.4,60.0,1009.7,165.8,1.7,3.4,130.8,0.44,24.6,26.7,"13:00:16",1
"23/09/18","13:20",0.0,33.0,60.4,1009.7,182.3,2.2,4.2,195.3,0.37,24.3,26.5,"13:19:20",1
"23/09/18","13:30",0.0,33.4,58.1,1009.5,190.6,2.3,4.3,226.8,0.44,24.1,26.7,"13:29:28",1
"23/09/18","13:40",0.0,33.9,57.6,1009.5,174.9,1.7,4.2,213.7,0.48,24.4,27.0,"13:36:56",1
"23/09/18","13:50",0.0,33.7,57.1,1009.5,183.2,1.3,2.7,220.2,0.32,24.1,27.1,"13:46:00",1
"23/09/18","14:00",0.0,33.9,55.8,1009.3,177.5,1.8,3.9,199.8,0.38,23.9,26.9,"13:56:32",1
"23/09/18","14:10",0.0,33.7,56.0,1009.0,167.9,1.7,4.8,193.5,0.31,23.7,27.3,"14:01:28",1
"23/09/18","14:20",0.0,33.8,53.1,1009.0,169.4,1.5,3.5,229.1,0.32,23.0,27.2,"14:18:32",1
"23/09/18","14:30",0.0,34.0,54.7,1008.6,177.0,1.6,3.5,171.2,0.27,23.6,27.3,"14:24:32",1
"23/09/18","14:40",0.0,33.9,52.0,1008.6,195.2,2.2,4.7,214.1,0.28,22.7,27.1,"14:34:00",1
"23/09/18","14:50",0.0,34.1,53.1,1008.8,179.2,1.6,4.9,207.5,0.29,23.2,27.2,"14:47:20",1
"23/09/18","15:00",0.0,34.2,51.9,1008.8,183.3,1.2,3.2,239.4,0.28,22.9,27.3,"14:52:56",1
"23/09/18","15:10",0.0,33.9,52.4,1008.6,193.0,2.2,4.4,193.9,0.26,22.8,27.5,"15:09:28",1
"23/09/18","15:20",0.0,34.1,52.2,1009.0,190.5,1.3,3.5,213.0,0.25,22.9,27.4,"15:10:02",1
"23/09/18","15:30",0.0,34.2,51.0,1008.6,233.7,1.5,3.7,220.8,0.23,22.7,27.4,"15:20:08",1
"23/09/18","15:40",0.0,34.4,52.5,1008.8,207.0,1.0,3.4,201.8,0.19,23.3,27.6,"15:30:02",1
"23/09/18","15:50",0.0,32.9,55.5,1008.6,225.8,2.3,4.1,224.4,0.07,22.9,27.4,"15:44:00",1
"23/09/18","16:00",0.0,33.3,53.9,1008.1,228.6,2.2,4.0,230.1,0.16,22.7,27.6,"15:56:56",1
"23/09/18","16:10",0.0,33.3,54.3,1007.8,227.3,2.5,4.5,234.9,0.13,22.9,27.5,"16:03:52",1
"23/09/18","16:20",0.0,33.1,52.8,1008.3,220.7,2.2,4.3,215.3,0.11,22.2,27.6,"16:17:52",1
"23/09/18","16:30",0.0,32.9,52.5,1008.3,223.2,2.0,3.7,200.7,0.07,21.9,27.5,"16:22:56",1
"23/09/18","16:40",0.0,32.8,52.9,1007.8,229.3,1.7,2.7,219.9,0.07,22.0,27.5,"16:33:52",1
"23/09/18","16:50",0.0,32.2,55.5,1007.8,229.2,1.6,3.3,225.8,0.03,22.2,27.5,"16:44:00",1
"23/09/18","17:00",0.0,32.0,56.5,1007.6,226.2,2.0,3.6,225.2,0.03,22.3,27.3,"16:56:16",1
"23/09/18","17:10",0.0,31.7,56.5,1007.6,232.2,1.7,3.5,236.4,0.03,22.0,27.3,"17:03:52",1
"23/09/18","17:20",0.0,31.6,57.6,1007.1,222.6,1.8,4.3,215.1,0.02,22.3,27.4,"17:12:08",1
"23/09/18","17:30",0.0,31.2,58.0,1007.1,236.4,1.1,2.4,230.4,0.01,22.0,27.3,"17:28:16",1
"23/09/18","17:40",0.0,31.0,59.9,1007.4,226.4,0.8,2.0,221.6,0.00,22.3,27.4,"17:30:16",1
"23/09/18","17:50",0.0,30.6,60.9,1007.4,297.3,0.5,1.4,247.2,0.00,22.2,27.2,"17:45:36",1
"23/09/18","18:00",0.0,30.4,64.1,1006.9,347.6,0.7,1.6,339.8,0.00,22.9,27.3,"17:57:04",1
"23/09/18","18:10",0.0,29.5,66.2,1006.7,349.3,0.7,2.0,347.1,0.00,22.6,27.3,"18:00:24",1
"23/09/18","18:20",0.0,29.1,67.4,1006.2,294.3,0.2,1.2,352.2,0.00,22.5,27.2,"18:10:32",1
"23/09/18","18:30",0.0,28.5,68.4,1006.4,301.9,0.2,0.6,236.4,0.00,22.2,27.1,"18:28:48",1
"23/09/18","18:40",0.0,28.0,71.0,1006.7,297.5,0.3,1.0,345.8,0.00,22.3,27.1,"18:39:28",1
"23/09/18","18:50",0.0,27.8,74.3,1007.4,342.9,1.0,2.1,351.4,0.00,22.8,26.8,"18:48:32",1
"23/09/18","19:00",0.0,27.6,75.4,1007.8,342.5,1.1,2.8,345.5,0.00,22.9,27.2,"18:52:48",1
"23/09/18","19:10",0.0,27.5,75.6,1008.3,327.9,1.0,2.1,347.2,0.00,22.8,27.1,"19:06:24",1
"23/09/18","19:20",0.0,27.5,75.5,1008.3,313.7,0.5,1.4,352.9,0.00,22.8,26.9,"19:16:48",1
"23/09/18","19:30",0.0,27.5,75.2,1008.6,305.3,1.0,2.6,343.0,0.00,22.8,26.7,"19:28:48",1
"23/09/18","19:40",0.0,27.6,74.3,1008.3,315.8,0.8,2.0,324.8,0.00,22.7,26.8,"19:31:28",1
"23/09/18","19:50",0.0,27.4,74.2,1008.6,314.4,0.3,0.8,312.1,0.00,22.4,26.7,"19:45:28",1
"23/09/18","20:00",0.0,27.1,75.4,1008.6,320.0,0.5,1.1,343.4,0.00,22.4,27.0,"19:59:52",1
"23/09/18","20:10",0.0,26.9,76.5,1008.6,291.9,0.3,1.2,251.7,0.00,22.5,26.7,"20:00:32",1
"23/09/18","20:20",0.0,26.9,77.3,1008.6,336.3,0.8,1.7,352.3,0.00,22.6,26.7,"20:19:04",1
"23/09/18","20:30",0.0,26.7,78.6,1008.6,346.2,1.1,2.0,353.7,0.00,22.7,26.7,"20:24:48",1
"23/09/18","20:40",0.0,26.4,79.4,1008.8,331.9,0.8,1.9,344.7,0.00,22.6,26.6,"20:39:28",1
"23/09/18","20:50",0.0,26.4,80.0,1008.8,343.0,1.1,1.7,342.8,0.00,22.7,26.6,"20:40:56",1
"23/09/18","21:00",0.0,26.3,80.6,1008.6,339.4,1.1,2.0,341.8,0.00,22.7,26.7,"20:57:36",1
"23/09/18","21:10",0.0,26.3,80.5,1008.6,303.6,0.7,1.6,342.4,0.00,22.7,26.5,"21:02:00",1
"23/09/18","21:20",0.0,26.4,80.2,1009.0,321.8,0.8,1.8,348.1,0.00,22.8,26.6,"21:11:20",1
"23/09/18","21:30",0.0,26.3,80.3,1008.6,121.3,0.3,1.0,123.5,0.00,22.7,26.6,"21:22:24",1
"23/09/18","21:40",0.0,26.2,80.6,1008.8,315.7,0.5,0.8,314.9,0.00,22.6,26.6,"21:38:08",1
"23/09/18","21:50",0.0,26.0,81.0,1008.8,319.8,0.5,1.0,341.9,0.00,22.5,26.4,"21:41:04",1
"23/09/18","22:00",0.0,25.8,81.6,1009.0,338.5,0.6,1.4,4.3,0.00,22.5,26.4,"21:53:12",1
"23/09/18","22:10",0.0,25.6,82.3,1009.3,308.5,0.6,1.3,326.3,0.00,22.4,26.3,"22:00:02",1
"23/09/18","22:20",0.0,25.4,82.8,1008.8,283.3,0.3,1.2,340.4,0.00,22.3,26.3,"22:10:08",1
"23/09/18","22:30",0.0,25.2,83.4,1008.8,285.3,0.6,1.4,330.7,0.00,22.2,26.2,"22:26:40",1
"23/09/18","22:40",0.0,25.1,83.8,1009.0,305.5,0.7,1.4,343.4,0.00,22.2,26.2,"22:37:52",1
"23/09/18","22:50",0.0,25.1,84.1,1009.0,338.5,0.7,1.4,339.2,0.00,22.3,26.3,"22:40:40",1
"23/09/18","23:00",0.0,24.8,84.4,1009.0,300.5,0.6,0.9,325.4,0.00,22.0,26.3,"22:51:28",1
"23/09/18","23:10",0.0,24.9,85.0,1009.3,310.4,0.8,1.3,322.9,0.00,22.2,26.2,"23:01:44",1
"23/09/18","23:20",0.0,25.1,85.3,1009.3,332.8,1.0,1.4,357.4,0.00,22.5,26.0,"23:18:48",1
"23/09/18","23:30",0.0,24.8,85.5,1009.5,320.7,0.6,1.7,342.8,0.00,22.2,26.2,"23:20:16",1
"23/09/18","23:40",0.0,24.6,85.8,1009.3,290.1,0.3,0.9,343.6,0.00,22.1,26.1,"23:30:08",1
"23/09/18","23:50",0.0,24.4,86.4,1009.3,293.6,0.6,1.0,321.9,0.00,22.0,26.1,"23:49:52",1
"23/09/18","24:00",0.0,24.5,86.7,1009.3,297.4,0.7,1.3,322.4,0.00,22.2,25.9,"23:55:44",1
